Tracking 29777 objects as of 4-Oct-2024
HD Live streaming from Space Station
objects crossing your sky now

JILIN-01 GAOFEN 3D 6

Track JILIN-01 GAOFEN 3D 6 now!
10-day predictions


NORAD ID: 52391
Int'l Code: 2022-046D
Perigee: 500.6 km
Apogee: 504.8 km
Inclination: 97.5 °
Period: 94.5 minutes
Semi major axis: 6873 km
RCS: Unknown
Launch date: April 30, 2022
Source: People's Republic of China (PRC)
Launch site: Yellow Sea Launch Area, China (YSLA)
Your satellite tracking list
Your tracking list is empty




NASA's NSSDC Master Catalog

Two Line Element Set (TLE):
1 52391U 22046D   24277.84412680  .00044662  00000-0  18688-2 0  9994
2 52391  97.5122   8.0781 0003058  89.8549 270.3038 15.23425137134443
Source of the keplerian elements: AFSPC